Orbital Elements at Epoch 2459200.5 (2020-Dec-17.0) TDB
Reference: JPL 20 (heliocentric ecliptic J2000)
Element | Value | Uncertainty (1-sigma) | Units |
e | .1911419944914394 | 4.2952e-08 | |
a | 2.264468101387194 | 9.1656e-09 | au |
q | 1.831633152025803 | 9.8482e-08 | au |
i | 8.029070972528183 | 4.5766e-06 | deg |
node | 180.0421018051734 | 2.713e-05 | deg |
peri | 1.927606425961568 | 2.9045e-05 | deg |
M | 242.6610801879362 | 1.2043e-05 | deg |
tp | 2459606.183480032807 (2022-Jan-26.68348003) | 4.3263e-05 | TDB |
period | 1244.65141698701 3.41 | 7.5567e-06 2.069e-08 | d yr |
n | .289237609090158 | 1.7561e-09 | deg/d |
Q | 2.697303050748586 | 1.0918e-08 | au |
|
| | Orbit Determination Parameters
Additional Information
|